Regional Weather Roundup
Issued by NWS

Home | Current Version | Previous Version | Graphics & Text | Print | Product List | Glossary On
Versions: 1 2 3 4 5 6 7 8 9 10 11 12 13 14 15 16 17 18 19 20 21 22 23 24 25 26 27 28 29 30 31 32 33 34 35 36 37 38 39 40 41 42 43 44 45 46 47 48 49 50
000
ASUS45 KBOU 290607
RWRCO

WEATHER ROUNDUP FOR COLORADO
NATIONAL WEATHER SERVICE DENVER/BOULDER CO
1200 AM MDT SUN MAR 29 2015

NOTE: "FAIR" INDICATES FEW OR NO CLOUDS BELOW 12000 FEET WITH NO
SIGNIFICANT WEATHER AND/OR OBSTRUCTIONS TO VISIBILITY.

COZ001>005-013-030-031-290700-
...NORTHWEST COLORADO...

CITY           SKY/WX    TMP DP  RH WIND       PRES   REMARKS
CRAIG            N/A     47  20  34 SW10      30.18R
HAYDEN           N/A     46  18  31 W7        30.19R
MEEKER         MOCLDY    52  22  30 CALM      30.19R
MOUNT WERNER   NOT AVBL
STEAMBOAT SPGS MOCLDY    43  31  63 SE8       30.19R
WALDEN         CLEAR     36  21  55 NE3       30.20R
$$

COZ006>008-011-290700-
...WEST CENTRAL VALLEYS...

CITY           SKY/WX    TMP DP  RH WIND       PRES   REMARKS
GRAND JUNCTION PTCLDY    48  23  37 N5        30.10R
MONTROSE       PTCLDY    53  23  31 SE10      30.16R
EAGLE          CLOUDY    54  37  54 NE3       30.19R
RIFLE          PTCLDY    61  24  24 SW7       30.13R
DELTA          PTCLDY    57  23  27 CALM      30.13R
NUCLA          PTCLDY    50  21  32 E10       30.21R
$$

COZ017>023-064>068-290700-
...SOUTHWEST COLORADO...

CITY           SKY/WX    TMP DP  RH WIND       PRES   REMARKS
DURANGO        CLEAR     45  22  40 N3        30.21R
CORTEZ         CLEAR     40  20  44 NE9       30.20R
PAGOSA SPRINGS CLEAR     42  22  45 CALM      30.27R
TELLURIDE      NOT AVBL
WOLF CREEK PAS CLEAR     34  14  44 SW15      30.46S WCI  24
$$

COZ009-010-012-014-032>034-037-058>063-290700-
...CENTRAL COLORADO...

CITY           SKY/WX    TMP DP  RH WIND       PRES   REMARKS
ASPEN          CLOUDY    47  32  56 SE17      30.23F
BUENA VISTA    CLOUDY    47  31  53 NW23G35   30.22R
COPPER MTN     SNOW      36  25  64 SW17G38   30.39S VSB 1/4
BERTHOUD PASS  CLOUDY    28  21  74 NW26G39   30.38S WCI  13
COTTONWOOD PAS PTCLDY    50  10  20 NW21G33   30.28R
GUNNISON       CLEAR     36  21  55 N5        30.27R
KREMMLING      MOCLDY    50  23  34 CALM      30.22R
LEADVILLE      MOCLDY    36  27  69 SE10G16   30.31F
SALIDA         MOCLDY    52  19  27 NW12      30.25R
SUNLIGHT       CLOUDY    41  25  52 SW3       30.39R
WILKERSON PASS PTCLDY    36  21  55 W23       30.28F
$$

COZ069>075-290700-
...SAN LUIS VALLEY/SANGRE DE CRISTO MOUNTAINS...

CITY           SKY/WX    TMP DP  RH WIND       PRES   REMARKS
ALAMOSA        CLEAR     43  19  38 NW7       30.20R
LA VETA PASS   CLEAR     39  19  45 SW7       30.29R
SAGUACHE       CLEAR     41  19  42 NW8       30.22R
$$

COZ035-036-038>040-290700-
...NORTHERN COLORADO FRONT RANGE...

CITY           SKY/WX    TMP DP  RH WIND       PRES   REMARKS
DENVER INTL AP PTCLDY    60  32  34 NW15      30.02R
DMNS CITY PARK   N/A     56  34  43 S5        30.01R
AURORA         PTCLDY    56  31  38 W8        30.03S
FRONT RANGE AP PTCLDY    59  34  38 NW9       30.03R
ERIE MUNI ARPT PTCLDY    54  32  44 CALM      30.00S
BOULDER MUN AP PTCLDY    61  30  31 SE9       29.97F
CENTENNIAL     PTCLDY    55  27  34 W8        30.04R
BROOMFIELD     PTCLDY    57  30  35 NW13G20   30.02R
FORT COLLINS   CLEAR     59  30  33 CALM      30.00S
LONGMONT       CLEAR     63  27  25 NW21G28   30.00S
$$

COZ041-046-047-076>085-087-088-290700-
...PIKES PEAK/PALMER DIVIDE AND SOUTHERN FOOTHILLS...

CITY           SKY/WX    TMP DP  RH WIND       PRES   REMARKS
COLO. SPRINGS  PTCLDY    58  20  22 NW9       30.06R
A. F. ACADEMY  CLEAR     48  23  37 NW7       30.09R
ELLICOTT       CLEAR    N/A N/A N/A N12       30.03S
FALCON         CLEAR     49  21  32 NW7       30.10S
FORT CARSON    CLEAR     53  23  30 NW8       30.03R
LIMON          CLEAR     54  28  36 NW10      30.01R
MONUMENT HILL  CLEAR     45  28  53 W13       30.10S
TRINIDAD       CLEAR     58  23  26 W16       30.04R
$$

COZ042>045-048>051-090-091-290700-
...NORTHEAST COLORADO...

CITY           SKY/WX    TMP DP  RH WIND       PRES   REMARKS
GREELEY ARPT   PTCLDY    59  28  31 NE5       29.97R
AKRON          CLOUDY    58  30  34 W12       29.93R
BURLINGTON     PTCLDY    57  28  33 S14       29.90F
WRAY           CLOUDY    69  25  19 W9        29.88R
STERLING       CLOUDY    68  30  24 NW23      29.89R
HOLYOKE        NOT AVBL
FORT MORGAN    CLOUDY    62  29  29 W23       29.95R
$$

COZ086-089-092>099-290700-
...SOUTHEAST COLORADO...

CITY           SKY/WX    TMP DP  RH WIND       PRES   REMARKS
PUEBLO         CLEAR     56  22  26 NW12      29.96R
LA JUNTA       CLEAR     62  25  24 W17       29.91R
LAMAR          CLEAR     61  25  25 SW10      29.85R
SPRINGFIELD      N/A     54  25  32 SW9       29.94F
$$



USA.gov is the U.S. government's official web portal to all federal, state and local government web resources and services.